MSR773 HECA-LSZH

Flight info

Callsign MSR773
Flight time N/A
Altitude 34000
Route CVO L617 NOZ L551 ANTAR DCT RIGRO DCT DISOR/N0451F360 DCT LONTA UL608 DOLEV DCT ERKIR DCT KPT L856 NEGRA
Aircraft B738/M-SDE2E3FGHIRWXY/LB1

Departure

Time N/A
Airport Cairo International Airport (HECA)

Arrival

Time 2026-04-26 13:40
Airport Zürich Airport (LSZH)
Time Latitude Longitude Altitude Speed Heading
2026-04-26 12:44 46.30441 14.43393 36137 ft 427 kts 307°
2026-04-26 12:45 46.34056 14.36580 36127 ft 427 kts 307°
2026-04-26 12:45 46.37672 14.29748 36129 ft 428 kts 307°
2026-04-26 12:46 46.41284 14.22908 36127 ft 428 kts 307°
2026-04-26 12:46 46.44895 14.16053 36145 ft 427 kts 307°
2026-04-26 12:47 46.48474 14.09241 36138 ft 428 kts 307°
2026-04-26 12:47 46.52081 14.02360 36133 ft 428 kts 307°
2026-04-26 12:48 46.55689 13.95459 36134 ft 429 kts 307°
2026-04-26 12:48 46.59292 13.88550 36131 ft 429 kts 307°
2026-04-26 12:49 46.62886 13.81643 36126 ft 428 kts 306°
2026-04-26 12:49 46.66476 13.74724 36138 ft 428 kts 306°
2026-04-26 12:50 46.70067 13.67789 36135 ft 428 kts 306°
2026-04-26 12:50 46.73620 13.60908 36132 ft 427 kts 306°
2026-04-26 12:51 46.76010 13.56270 36158 ft 424 kts 306°
2026-04-26 12:51 46.77577 13.52777 37036 ft 404 kts 301°
2026-04-26 12:51 46.79158 13.49429 37532 ft 397 kts 306°
2026-04-26 12:52 46.82623 13.42963 37117 ft 417 kts 307°
2026-04-26 12:52 46.84445 13.39584 36751 ft 429 kts 307°
2026-04-26 12:52 46.86287 13.36113 36381 ft 433 kts 307°
2026-04-26 12:52 46.88107 13.32630 36174 ft 428 kts 306°
2026-04-26 12:53 46.89893 13.29169 36173 ft 425 kts 306°
2026-04-26 12:53 46.93427 13.22250 36161 ft 425 kts 306°
2026-04-26 12:54 46.96957 13.15293 36154 ft 426 kts 305°
2026-04-26 12:54 47.00486 13.08323 36167 ft 426 kts 305°
2026-04-26 12:55 47.04016 13.01337 36173 ft 427 kts 305°
2026-04-26 12:55 47.07557 12.94313 36178 ft 428 kts 305°
2026-04-26 12:56 47.11072 12.87322 36185 ft 428 kts 305°
2026-04-26 12:56 47.14610 12.80271 36188 ft 429 kts 305°
2026-04-26 12:57 47.18142 12.73209 36200 ft 429 kts 305°
2026-04-26 12:57 47.21668 12.66147 36205 ft 428 kts 305°
2026-04-26 12:58 47.26946 12.55533 36200 ft 428 kts 305°
2026-04-26 12:58 47.30460 12.48445 36202 ft 428 kts 304°
2026-04-26 12:59 47.33942 12.41405 36220 ft 427 kts 305°
2026-04-26 12:59 47.37440 12.34314 36205 ft 427 kts 304°
2026-04-26 13:00 47.40930 12.27221 36208 ft 427 kts 304°
2026-04-26 13:00 47.44406 12.20138 36214 ft 426 kts 304°
2026-04-26 13:01 47.47292 12.14242 36212 ft 426 kts 304°
2026-04-26 13:01 47.50761 12.07142 36206 ft 426 kts 304°
2026-04-26 13:02 47.53713 11.99607 36218 ft 423 kts 291°
2026-04-26 13:02 47.55183 11.91215 36219 ft 422 kts 281°
2026-04-26 13:03 47.56257 11.82678 36208 ft 422 kts 280°
2026-04-26 13:03 47.57337 11.74136 36207 ft 422 kts 280°
2026-04-26 13:04 47.58437 11.65590 36206 ft 422 kts 281°
2026-04-26 13:04 47.59543 11.57033 36207 ft 423 kts 281°
2026-04-26 13:05 47.60647 11.48461 36207 ft 423 kts 281°
2026-04-26 13:05 47.61558 11.41338 36210 ft 424 kts 280°
2026-04-26 13:06 47.62466 11.34207 36203 ft 424 kts 280°
2026-04-26 13:06 47.63553 11.25613 36204 ft 424 kts 280°
2026-04-26 13:07 47.64634 11.17011 36197 ft 424 kts 280°
2026-04-26 13:07 47.65710 11.08401 36205 ft 424 kts 280°
2026-04-26 13:08 47.66780 10.99778 35987 ft 427 kts 280°
2026-04-26 13:08 47.67308 10.95499 35742 ft 425 kts 280°
2026-04-26 13:08 47.67838 10.91203 35486 ft 422 kts 280°
2026-04-26 13:09 47.68363 10.86918 35230 ft 422 kts 280°
2026-04-26 13:09 47.68885 10.82651 34789 ft 418 kts 280°
2026-04-26 13:09 47.69400 10.78433 34395 ft 413 kts 279°
2026-04-26 13:09 47.69908 10.74252 33932 ft 410 kts 279°
2026-04-26 13:10 47.70411 10.70103 33476 ft 406 kts 279°
2026-04-26 13:10 47.70908 10.65988 33059 ft 402 kts 279°
2026-04-26 13:10 47.71398 10.61913 32638 ft 398 kts 279°
2026-04-26 13:10 47.71882 10.57881 32216 ft 395 kts 279°
2026-04-26 13:11 47.72361 10.53881 31824 ft 391 kts 279°
2026-04-26 13:11 47.72834 10.49916 31419 ft 388 kts 279°
2026-04-26 13:11 47.73302 10.45984 31022 ft 385 kts 279°
2026-04-26 13:11 47.73766 10.42078 30631 ft 382 kts 279°
2026-04-26 13:12 47.74224 10.38202 30237 ft 380 kts 279°
2026-04-26 13:12 47.74587 10.34338 29774 ft 376 kts 272°
2026-04-26 13:12 47.74566 10.30477 29388 ft 371 kts 268°
2026-04-26 13:12 47.74461 10.26706 28968 ft 368 kts 267°
2026-04-26 13:13 47.74353 10.22930 28574 ft 364 kts 267°
2026-04-26 13:13 47.74251 10.19180 28179 ft 361 kts 268°
2026-04-26 13:13 47.74156 10.15473 27783 ft 358 kts 268°
2026-04-26 13:13 47.74065 10.11782 27391 ft 355 kts 267°
2026-04-26 13:14 47.73977 10.08126 27001 ft 353 kts 267°
2026-04-26 13:14 47.73889 10.04494 26618 ft 351 kts 267°
2026-04-26 13:14 47.73800 10.00881 26238 ft 348 kts 267°
2026-04-26 13:14 47.73710 9.97297 25866 ft 347 kts 267°
2026-04-26 13:15 47.73618 9.93711 25488 ft 347 kts 267°
2026-04-26 13:15 47.73525 9.90123 24946 ft 351 kts 267°
2026-04-26 13:15 47.73429 9.86466 24320 ft 357 kts 267°
2026-04-26 13:15 47.73332 9.82801 23777 ft 361 kts 267°
2026-04-26 13:16 47.73233 9.79082 23304 ft 359 kts 267°
2026-04-26 13:16 47.73134 9.75390 22898 ft 356 kts 267°
2026-04-26 13:16 47.73034 9.71730 22475 ft 353 kts 267°
2026-04-26 13:16 47.72933 9.68094 22045 ft 352 kts 267°
2026-04-26 13:17 47.72745 9.60860 21193 ft 349 kts 268°
2026-04-26 13:17 47.72654 9.57266 20789 ft 347 kts 268°
2026-04-26 13:18 47.72447 9.50123 20018 ft 344 kts 268°
2026-04-26 13:18 47.72330 9.46584 19615 ft 342 kts 268°
2026-04-26 13:18 47.70815 9.40000 18804 ft 345 kts 234°
2026-04-26 13:19 47.69435 9.37114 18439 ft 341 kts 246°
2026-04-26 13:19 47.68820 9.33751 17997 ft 337 kts 263°
2026-04-26 13:19 47.68502 9.30316 17538 ft 337 kts 263°
2026-04-26 13:19 47.68197 9.26905 17076 ft 336 kts 263°
2026-04-26 13:20 47.67894 9.23463 16576 ft 337 kts 263°
2026-04-26 13:20 47.67594 9.20003 16078 ft 338 kts 263°
2026-04-26 13:20 47.67297 9.16541 15594 ft 339 kts 263°
2026-04-26 13:20 47.67196 9.15363 15427 ft 340 kts 263°
2026-04-26 13:21 47.66900 9.11868 14924 ft 340 kts 263°
2026-04-26 13:21 47.66707 9.09554 14608 ft 340 kts 263°
2026-04-26 13:21 47.66322 9.04873 13990 ft 341 kts 263°
2026-04-26 13:21 47.66038 9.01389 13459 ft 341 kts 263°
2026-04-26 13:22 47.65754 8.97889 12934 ft 341 kts 263°
2026-04-26 13:22 47.65479 8.94406 12421 ft 340 kts 263°
2026-04-26 13:22 47.65203 8.90916 11925 ft 340 kts 263°
2026-04-26 13:22 47.64928 8.87447 11486 ft 338 kts 263°
2026-04-26 13:23 47.64655 8.83994 11045 ft 337 kts 263°
2026-04-26 13:23 47.64385 8.80590 10608 ft 335 kts 263°
2026-04-26 13:23 47.64114 8.77216 10192 ft 334 kts 263°
2026-04-26 13:23 47.63836 8.73753 9719 ft 333 kts 263°
2026-04-26 13:24 47.63567 8.70378 9244 ft 324 kts 263°
2026-04-26 13:24 47.63309 8.67112 8833 ft 314 kts 263°
2026-04-26 13:24 47.63059 8.63939 8498 ft 303 kts 263°
2026-04-26 13:24 47.62824 8.60931 8377 ft 286 kts 263°
2026-04-26 13:25 47.62598 8.58051 8320 ft 277 kts 263°
2026-04-26 13:25 47.62479 8.55252 8223 ft 269 kts 278°
2026-04-26 13:25 47.63192 8.52765 7976 ft 263 kts 311°
2026-04-26 13:25 47.64480 8.50936 7783 ft 252 kts 318°
2026-04-26 13:26 47.65771 8.49195 7392 ft 250 kts 319°
2026-04-26 13:26 47.67049 8.47475 7056 ft 245 kts 319°
2026-04-26 13:26 47.68268 8.45745 6708 ft 239 kts 317°
2026-04-26 13:26 47.69447 8.44090 6296 ft 233 kts 318°
2026-04-26 13:27 47.70604 8.42490 6025 ft 220 kts 317°
2026-04-26 13:27 47.71366 8.40640 5955 ft 212 kts 279°
2026-04-26 13:27 47.71075 8.38587 6033 ft 210 kts 231°
2026-04-26 13:27 47.69911 8.37469 6006 ft 197 kts 185°
2026-04-26 13:28 47.68611 8.37482 6031 ft 181 kts 174°
2026-04-26 13:28 47.67364 8.37597 6052 ft 179 kts 174°
2026-04-26 13:28 47.66100 8.37635 6002 ft 182 kts 178°
2026-04-26 13:28 47.64857 8.37690 6005 ft 175 kts 174°
2026-04-26 13:29 47.63645 8.37810 5972 ft 173 kts 172°
2026-04-26 13:29 47.62860 8.37900 5967 ft 169 kts 173°
2026-04-26 13:29 47.61262 8.38055 6014 ft 177 kts 172°
2026-04-26 13:29 47.60055 8.38195 6001 ft 171 kts 173°
2026-04-26 13:30 47.58878 8.38304 6023 ft 171 kts 173°
2026-04-26 13:30 47.57646 8.38407 6049 ft 180 kts 175°
2026-04-26 13:30 47.56410 8.38538 5954 ft 171 kts 173°
2026-04-26 13:30 47.55250 8.38321 6006 ft 176 kts 209°
2026-04-26 13:31 47.54445 8.36742 6028 ft 218 kts 256°
2026-04-26 13:31 47.54408 8.34417 6009 ft 230 kts 274°
2026-04-26 13:31 47.54497 8.32066 6013 ft 226 kts 273°
2026-04-26 13:31 47.54589 8.29747 5983 ft 223 kts 274°
2026-04-26 13:32 47.54687 8.27462 5991 ft 227 kts 281°
2026-04-26 13:32 47.55434 8.25475 6034 ft 222 kts 317°
2026-04-26 13:32 47.56575 8.23919 6011 ft 224 kts 319°
2026-04-26 13:32 47.57702 8.22364 5980 ft 221 kts 318°
2026-04-26 13:33 47.58795 8.20773 6017 ft 223 kts 318°
2026-04-26 13:33 47.59911 8.19186 5991 ft 221 kts 318°
2026-04-26 13:33 47.61030 8.17667 5992 ft 215 kts 321°
2026-04-26 13:33 47.62281 8.16429 5965 ft 217 kts 347°
2026-04-26 13:34 47.63734 8.16567 6058 ft 217 kts 28°
2026-04-26 13:34 47.64821 8.18041 6024 ft 215 kts 66°
2026-04-26 13:34 47.65000 8.20193 5985 ft 213 kts 106°
2026-04-26 13:34 47.64620 8.21515 6044 ft 209 kts 117°
2026-04-26 13:35 47.63798 8.24194 5884 ft 216 kts 113°
2026-04-26 13:35 47.63179 8.26214 5723 ft 215 kts 112°
2026-04-26 13:35 47.62553 8.28253 5417 ft 216 kts 113°
2026-04-26 13:35 47.62342 8.28932 5322 ft 214 kts 114°
2026-04-26 13:36 47.61728 8.30903 5074 ft 209 kts 113°
2026-04-26 13:36 47.61125 8.32849 4848 ft 209 kts 113°
2026-04-26 13:36 47.60510 8.34811 4601 ft 210 kts 113°
2026-04-26 13:36 47.59889 8.36774 4341 ft 209 kts 112°
2026-04-26 13:37 47.59160 8.38610 4111 ft 209 kts 129°
2026-04-26 13:37 47.58115 8.40156 4026 ft 214 kts 134°
2026-04-26 13:37 47.57011 8.41607 3722 ft 215 kts 136°
2026-04-26 13:37 47.55946 8.43040 3535 ft 205 kts 134°
2026-04-26 13:38 47.54893 8.44504 3229 ft 207 kts 134°
2026-04-26 13:38 47.53850 8.45930 2951 ft 199 kts 135°
2026-04-26 13:38 47.52848 8.47286 2702 ft 191 kts 134°
2026-04-26 13:38 47.51908 8.48569 2462 ft 175 kts 133°
2026-04-26 13:39 47.51046 8.49741 2198 ft 157 kts 131°
2026-04-26 13:39 47.50234 8.50852 1976 ft 160 kts 131°
2026-04-26 13:39 47.49425 8.51960 1766 ft 156 kts 133°
2026-04-26 13:39 47.48642 8.53021 1577 ft 151 kts 134°
2026-04-26 13:40 47.47862 8.54079 1424 ft 147 kts 131°
2026-04-26 13:40 47.47190 8.55022 1386 ft 121 kts 137°
2026-04-26 13:40 47.46719 8.55655 1393 ft 52 kts 139°
2026-04-26 13:40 47.46489 8.55903 1397 ft 24 kts 157°
2026-04-26 13:41 47.46365 8.55962 1401 ft 16 kts 168°
2026-04-26 13:41 47.46316 8.55977 1405 ft 0 kts 167°
2026-04-26 13:42 47.46303 8.55982 1406 ft 1 kts 167°
2026-04-26 13:42 47.46271 8.55989 1402 ft 9 kts 171°
2026-04-26 13:42 47.46217 8.55982 1404 ft 5 kts 245°
2026-04-26 13:42 47.46226 8.55899 1402 ft 15 kts 284°
2026-04-26 13:43 47.46241 8.55741 1400 ft 15 kts 271°
2026-04-26 13:43 47.46250 8.55585 1403 ft 17 kts 276°
2026-04-26 13:43 47.46262 8.55392 1395 ft 19 kts 275°
2026-04-26 13:43 47.46277 8.55208 1392 ft 16 kts 276°
2026-04-26 13:44 47.46286 8.55073 1390 ft 13 kts 275°
2026-04-26 13:44 47.46256 8.54956 1389 ft 15 kts 208°
2026-04-26 13:44 47.46151 8.54995 1387 ft 15 kts 154°
2026-04-26 13:44 47.46066 8.55056 1393 ft 10 kts 154°
2026-04-26 13:45 47.46053 8.55118 1401 ft 6 kts 68°
2026-04-26 13:45 47.46066 8.55160 1403 ft 2 kts 65°
2026-04-26 13:45 47.46069 8.55170 1402 ft 0 kts 65°